Location: Codford Saint Peter
(51.1597°N, 2.0531°W)
Time: 23:35:37
(UTC+00:00)

SJ 16-02 - Visible Passes

Search period start: 23 January 2021 00:00
Search period end: 02 February 2021 00:00
Orbit: 606 x 616 km, 75.0° (Epoch: 23 January)

Date Brightness Start Highest point End Pass type
(mag) Time Alt. Az. Time Alt. Az. Time Alt. Az.
23 Jan 1.7 17:57:13 10° S 18:01:24 44° ESE 18:05:19 12° NE visible
23 Jan 3.3 19:36:26 10° WSW 19:40:10 27° NW 19:42:20 18° NNW visible
24 Jan 1.2 18:11:49 10° SSW 18:16:12 78° ESE 18:20:34 10° NNE visible
24 Jan 3.9 19:52:21 10° W 19:55:21 18° NW 19:57:35 13° NNW visible
25 Jan 1.8 18:26:44 10° SW 18:31:06 62° WNW 18:35:29 10° NNE visible
25 Jan 4.2 20:08:54 10° WNW 20:10:38 12° NW 20:12:22 10° NNW visible
26 Jan 2.7 18:42:00 10° SW 18:46:07 37° WNW 18:50:13 10° N visible
27 Jan 3.5 18:57:36 10° WSW 19:01:12 24° NW 19:04:49 10° N visible
28 Jan 1.4 17:32:46 10° SSW 17:37:10 88° ESE 17:41:36 10° NNE visible
28 Jan 4.0 19:13:38 10° W 19:16:25 16° NW 19:19:11 10° N visible
29 Jan 2.1 17:47:46 10° SW 17:52:05 55° WNW 17:56:26 10° NNE visible
29 Jan 4.3 19:30:32 10° WNW 19:31:43 11° NW 19:32:54 10° NNW visible
30 Jan 3.0 18:03:06 10° WSW 18:07:06 33° WNW 18:11:08 10° N visible
31 Jan 3.6 18:18:48 10° WSW 18:22:14 22° NW 18:25:40 10° N visible
01 Feb 4.0 18:34:58 10° W 18:37:28 15° NW 18:39:57 10° N visible
